Regional Weather Roundup
Issued by NWS Charleston, SC

Current Version | Previous Version | Text Only | Print | Product List | Glossary Off
Versions: 1 2 3 4 5 6 7 8 9 10 11 12 13 14 15 16 17 18 19 20 21 22 23 24 25 26 27 28 29 30 31 32 33 34 35 36 37 38 39 40 41 42 43 44 45 46 47 48 49 50

000
ASUS42 KCHS 281110
RWRCHS
REGIONAL WEATHER ROUNDUP
NATIONAL WEATHER SERVICE CHARLESTON SC
600 AM EST SUN DEC 28 2014

NOTE: "FAIR" INDICATES FEW OR NO CLOUDS BELOW 12,000 FEET WITH NO
SIGNIFICANT WEATHER AND/OR OBSTRUCTIONS TO VISIBILITY.

NOT ALL STATIONS ARE QUALITY CONTROLLED BY THE NATIONAL
WEATHER SERVICE. USE DATA WITH CAUTION...ESPECIALLY
DEWPOINT OBSERVATIONS.

SCZ027-030-031-034>040-042>050-281200-
...SOUTHEAST SOUTH CAROLINA...

CITY           SKY/WX    TMP DP  RH WIND       PRES   REMARKS
N CHARLESTON   CLOUDY    51  49  92 CALM      30.13R
WATERFRONT PRK   N/A     55 N/A N/A CALM        N/A
MOUNT PLEASANT FAIR      50  50 100 CALM      30.12S
PINOPOLIS        N/A     59  54  82 MISG      30.06R
MONCKS CORNER  CLOUDY    54  52  94 CALM      30.13R
SUMMERVILLE    CLOUDY    52  52 100 CALM      30.14R
BEAUFORT MCAS  MOCLDY    53  50  89 CALM      30.13R
BEAUFORT ARPT  FAIR      52  52 100 CALM      30.11S
HILTON HEAD IS NOT AVBL
WALTERBORO     PTSUNNY   54 N/A N/A CALM      30.14R
ALLENDALE      CLOUDY    55  54  94 CALM      30.14R

...SOUTHERN MIDLANDS AND PEE DEE...

CITY           SKY/WX    TMP DP  RH WIND       PRES   REMARKS
GEORGETOWN     NOT AVBL
KINGSTREE      NOT AVBL
ORANGEBURG     CLOUDY    55  51  86 VRB3      30.15R
BARNWELL         N/A     55  54  94 N3        30.15S
AIKEN          RAIN      54  54 100 W3        30.18S
MANNING        CLOUDY    54 N/A N/A CALM      30.15R
COLUMBIA       LGT RAIN  53  51  93 CALM      30.15S FOG
SUMTER         CLOUDY    55  52  90 W8        30.13S
FLORENCE       CLOUDY    53  49  86 W5        30.13R
MYRTLE BEACH   MOCLDY    52  48  87 CALM      30.14R
N MYRTLE BEACH MOCLDY    51  49  92 CALM      30.13R

$$

GAZ063-065-086>088-099>101-113>116-118-119-134>141-150-281200-
...SOUTHEAST GEORGIA...

CITY           SKY/WX    TMP DP  RH WIND       PRES   REMARKS
SAVANNAH ARPT  MOCLDY    53  51  93 CALM      30.13S
HUNTER AAF     PTCLDY    51  51 100 SE2       30.10S
FORT STEWART   PTCLDY    50  48  93 CALM      30.11S
STATESBORO     CLOUDY    52  52 100 CALM      30.13R
SYLVANIA       PTSUNNY   54  54 100 CALM      30.14R
CLAXTON        FAIR      52  52 100 CALM      30.13R

...CSRA...CENTRAL AND FAR SOUTHEAST GEORGIA...

CITY           SKY/WX    TMP DP  RH WIND       PRES   REMARKS
THOMSON        CLOUDY    54  54 100 CALM      30.19F
AUGUSTA-BUSH   CLOUDY    54  53  97 CALM      30.15S
AUGUSTA-DANIEL CLOUDY    55  53  93 N3        30.16S
SWAINSBORO     CLOUDY   N/A N/A N/A CALM      30.15R
VIDALIA        CLOUDY    55  55 100 SW3       30.13R
EASTMAN        FAIR      57  57 100 CALM      30.14S
HAZLEHURST     FAIR      58  58 100 S3        30.12R
ALMA           PTCLDY    53  52  96 CALM      30.13R
WAYCROSS       CLEAR     56  56 100 CALM      30.13R
JESUP          FAIR      52  52 100 CALM      30.13S FOG
BAXLEY         FAIR      55  55 100 CALM      30.12S FOG
BRUNSWICK        N/A     52  52 100 CALM      30.13S
SAINT SIMONS   CLEAR     55  53  93 CALM      30.12F

$$

SCZ027-028-034-036>038-045-046-048>050-GAZ119-141-281200-
...LAKE AND SUPPLEMENTAL COASTAL OBSERVATIONS...

STATION/POSITION TIME  TEMP    WIND        PRES    WAVE   SWELL
                       AIR SEA DIR/SP/G            HT/PER HT/PER/DIR
                 (UTC) (F)     (DEG/KT/KT) (MB)    (FT/S) (FT/S/D)
UPR LAKE MARION  NOT AVBL
WINYAH BAY       1000   52        CALM     1019.0S
LAKE MURRAY      1000   54     260/  6/  8 1020.3S
ACE BASIN NERRS  1000   51        CALM     1020.0S
FORT PULASKI     1100   56 56  170/  2/  2 1020.2S
SAPELO ISLAND    1000   53     190/  1     1020.0S

$$

ANZ835-935-AMZ111-154-330-350-352-354-370-450-454-472-281200-
...C-MAN AND BUOY OBSERVATIONS...

STATION/POSITION TIME  TEMP    WIND        PRES    WAVE   SWELL
                       AIR SEA DIR/SP/G            HT/PER HT/PER/DIR
                 (UTC) (F)     (DEG/KT/KT) (MB)    (FT/S) (FT/S/D)
BUOY 41004       1100   72 74  200/ 10/ 10 1019.6S   3/12   2/12
BUOY 41008       1100   61 59  140/  4/  6 1019.9F   3/16   3/ 50/16
FOLLY BEACH CMAN 1000   56     150/  5/  6 1020.1F
CAPERS NEARSHORE 1000   56      CALM  /  2   N/A
FRIPP NEARSHORE  NOT AVBL


STATION/POSITION TIME  TEMP    WIND        PRES    WAVE   SWELL
                       AIR SEA DIR/SP/G            HT/PER HT/PER/DIR
                 (UTC) (F)     (DEG/KT/KT) (MB)    (FT/S) (FT/S/D)
5E ST. MARYS GA  1100      60                N/A     3/17   2/100/17
FRYING PAN BUOY  1100   70 68  210/  8/ 10 1020.4F   4/14   3/120/14
BUOY 41025       1100   69                 1020.1F   4/15
CAPE LOOKOUT NC  1000   58      CALM  /  3 1020.1F
BUOY 41002       1017   72 74  190/ 12/ 14 1022.3R   5/15   5/ 70/15
BUOY 41010       1100   74 77  140/ 10/ 10 1020.8R   5/16   5/ 70/16
ST AUGUSTINE FL  1100   61     340/  3/  3 1021.2R


$$



USA.gov is the U.S. government's official web portal to all federal, state and local government web resources and services.